Presure
117 117 123 117 165 160 146 146 153 159 153 90 78 149 149 149 99 87 158 154 147 157 90 88 92 162 97 141 99 101 98 146 168 126 133 100 106 109 104 106 100 88 99 120 157 140 162 146 174
123 119 120 128 148 118 135 164 132 155 157 160 87 157 77 157 141 110 105 154 165 153 161 128 99 92 105 160 107 125 102 168 104 131 112 151 109 106 104 87 95 86 88 115 132 167 133 126 177
132 133 131 134 110 134 162 112 120 120 143 157 159 147 78 104 83 78 150 162 147 79 169 111 162 166 95 138 117 100 102 154 155 126 167 134 124 100 152 98 107 101 88 110 126 144 122 151 166
137 130 138 185 143 112 136 134 174 122 117 133 130 118 131 128 84 161 76 78 89 91 151 153 89 156 109 105 125 143 101 109 124 147 111 151 167 119 121 136 103 87 94 112 129 110 154 128 164
183 155 139 151 152 153 160 132 118 118 117 109 122 125 128 121 139 153 123 78 91 145 118 137 166 134 161 163 96 97 109 102 100 154 141 151 112 156 107 106 102 89 97 97 116 124 148 126 126
138 210 179 170 162 178 163 162 170 134 120 156 137 142 132 127 129 130 127 170 123 102 78 82 91 169 168 93 162 96 182 133 156 102 136 150 141 154 95 104 97 104 85 89 129 103 136 127 135
129 153 125 139 129 119 200 189 165 156 144 121 111 126 154 177 161 119 120 127 129 109 81 123 78 126 156 164 95 101 108 165 113 166 175 141 154 110 110 87 98 100 106 89 107 136 98 145 125
151 159 185 136 179 133 121 145 123 132 119 148 141 144 146 125 175 167 130 126 159 132 140 137 82 165 89 151 162 123 162 96 172 117 140 113 180 150 203 178 135 104 105 110 92 108 99 114 133
141 213 216 231 227 188 220 220 224 134 221 151 115 122 135 122 136 132 137 142 124 126 129 139 134 100 84 85 173 131 184 104 98 98 167 149 167 130 130 107 107 110 108 106 166 90 107 123 112
114 158 114 129 230 160 198 128 179 166 113 201 191 141 179 134 166 128 133 139 142 142 138 127 127 134 144 85 88 135 178 178 121 170 129 171 102 158 188 142 108 130 140 104 85 109 89 106 109
165 182 217 228 206 138 195 211 211 195 111 135 211 133 219 239 159 179 230 246 173 252 154 235 147 155 142 202 86 114 125 180 95 98 159 171 171 103 184 136 144 120 172 111 102 82 108 115 102
204 166 202 103 194 205 181 130 195 207 229 158 231 209 242 245 208 216 213 135 199 214 233 236 127 134 136 132 142 87 90 96 137 166 167 111 154 172 151 102 135 133 112 119 112 85 107 106 115
221 235 222 210 176 157 221 224 210 220 187 212 163 210 183 202 200 201 206 237 227 224 232 232 165 195 212 216 213 134 130 118 87 152 172 173 179 127 140 101 158 116 158 160 114 113 90 80 96
123 122 224 158 185 224 223 226 229 228 232 234 186 206 137 167 219 163 162 163 214 214 227 230 215 200 213 164 231 243 214 241 93 93 163 192 133 120 155 161 188 112 106 132 161 106 107 103 94
270 244 230 233 221 143 187 211 217 191 165 227 226 219 226 195 230 212 118 125 132 123 123 128 232 233 213 240 207 230 231 221 249 253 157 84 174 120 110 125 177 102 103 114 133 110 108 92 155
235 275 269 216 216 213 213 216 193 221 179 135 194 166 233 239 253 247 248 125 135 224 273 285 287 291 230 223 226 205 227 219 192 232 247 227 86 174 190 171 160 122 168 105 104 103 102 102 105
307 299 276 273 259 226 233 230 228 227 227 231 130 246 253 258 261 149 118 125 118 279 282 274 270 157 271 262 247 219 143 218 229 239 230 295 139 107 211 203 179 108 141 119 103 104 105 103 105
346 224 314 301 162 267 215 232 261 260 191 239 214 220 212 253 122 198 142 126 275 270 153 224 152 178 262 259 265 269 248 222 156 195 209 177 217 165 90 186 115 166 156 139 127 103 102 104 110
305 315 299 299 225 292 243 271 228 263 260 256 254 256 242 259 243 241 247 265 263 260 252 126 254 254 255 256 260 267 278 206 284 296 226 275 179 145 90 86 151 127 185 169 176 143 104 105 104
292 293 295 287 287 280 226 269 209 257 253 248 250 259 257 255 247 242 263 260 252 249 248 249 251 252 254 255 264 272 232 283 243 298 301 301 220 200 223 240 96 153 161 110 122 110 112 161 106
274 269 274 280 273 268 274 267 267 262 252 235 254 248 248 260 265 258 254 247 246 246 246 245 248 251 249 253 257 254 254 269 278 290 301 347 323 173 200 242 173 91 107 162 126 110 178 151 110
268 270 272 269 266 267 261 251 246 247 256 244 246 261 275 261 261 249 244 241 240 238 241 245 242 243 242 245 269 284 417 484 575 536 450 309 238 338 173 204 246 211 102 106 169 105 144 104 113
266 262 267 258 257 255 251 260 252 247 239 250 279 261 254 249 243 237 235 236 237 235 239 250 239 253 258 277 284 452 559 595 599 606 616 443 474 324 269 177 219 227 103 91 184 108 111 109 128
269 268 256 251 254 257 248 263 259 249 265 255 255 245 243 235 233 233 233 238 240 245 249 253 254 257 265 268 440 500 553 555 567 577 601 530 565 296 352 182 186 234 223 88 94 190 107 124 110
268 265 262 259 258 261 274 276 266 254 249 247 242 240 234 230 230 229 235 243 241 239 248 253 242 251 259 355 437 530 538 539 542 555 585 594 468 354 327 364 190 223 224 211 94 90 207 166 135
279 277 273 291 287 264 259 254 247 248 238 237 235 231 229 228 224 236 244 244 244 254 257 227 247 249 312 423 459 499 510 519 528 548 575 603 526 392 313 356 243 232 218 215 210 97 103 157 156
268 263 263 261 255 251 248 245 237 236 239 235 234 224 227 228 233 238 214 228 255 253 247 244 239 289 314 433 471 489 498 520 530 549 570 595 636 676 304 348 240 195 230 213 213 210 165 202 174
259 253 256 262 253 246 239 233 235 235 233 233 230 224 226 225 214 211 214 221 249 246 237 233 257 294 404 444 455 475 498 506 534 552 574 423 626 393 153 333 238 243 196 208 215 216 94 171 103
263 258 258 256 249 239 237 234 232 234 230 229 227 226 224 223 218 217 219 231 243 230 243 240 265 295 424 446 443 470 497 509 527 555 573 549 625 375 266 311 276 247 233 217 220 215 207 177 167
270 264 263 256 244 237 241 224 228 164 228 222 230 218 222 222 227 227 224 227 241 226 237 238 264 295 433 430 440 472 500 504 519 555 577 465 622 647 292 320 311 227 223 222 218 215 204 135 204
Wind_Speed
34 33 38 33 82 76 62 59 63 75 57 44 38 61 59 57 42 36 66 58 59 58 35 35 35 57 35 49 33 34 32 48 39 38 40 29 27 25 23 18 16 15 13 10 25 11 22 10 28
43 37 37 45 65 34 52 85 47 69 71 77 47 69 36 61 57 47 42 60 65 58 58 50 42 36 43 52 39 44 37 47 36 42 34 40 31 26 25 23 21 18 15 10 15 30 11 8 22
54 53 49 55 33 55 79 33 37 39 56 72 78 59 42 49 42 36 60 70 60 32 71 46 61 66 39 50 47 40 39 51 48 46 41 38 39 29 46 26 21 22 20 14 12 14 13 15 24
62 53 59 98 63 40 58 54 94 44 41 50 47 40 47 40 50 79 35 35 43 46 60 60 41 61 48 47 52 53 41 44 47 50 40 40 43 37 34 40 27 24 24 17 17 17 24 15 23
92 72 60 70 70 71 81 53 48 41 42 46 43 47 51 44 58 72 66 40 45 63 54 58 76 59 66 70 44 43 48 43 42 54 52 50 38 45 33 31 29 27 25 24 21 20 21 19 17
63 70 73 83 78 91 79 82 90 57 45 73 57 62 55 52 51 53 49 99 64 55 42 44 44 89 84 47 70 46 76 61 61 45 51 57 50 50 37 35 33 31 26 24 27 22 24 23 21
60 69 54 61 55 49 107 95 83 73 68 55 51 52 75 103 83 49 48 52 52 52 49 53 41 59 70 76 51 55 49 67 53 67 64 59 60 42 39 33 36 34 32 27 27 29 22 29 21
71 75 81 64 87 64 51 67 52 61 53 71 67 70 70 54 102 95 58 55 81 59 65 61 52 89 54 69 78 64 73 50 74 55 64 51 68 60 65 53 47 39 37 35 29 29 24 23 26
60 84 75 68 81 90 92 94 94 63 93 70 56 56 64 57 65 61 67 70 58 59 59 68 67 56 53 52 103 66 96 58 53 52 73 71 65 53 56 44 43 43 40 38 56 27 28 29 26
56 63 62 59 80 79 94 63 80 81 59 96 94 73 88 71 89 64 66 71 72 74 74 64 62 65 71 52 57 64 102 98 61 82 65 77 51 70 74 67 47 49 47 40 29 35 28 31 29
80 86 85 79 94 67 93 97 98 97 60 68 98 69 87 84 81 76 90 90 82 93 81 113 79 82 74 113 59 63 67 102 52 56 78 84 77 54 81 64 65 51 64 46 42 27 35 35 31
92 79 82 40 92 85 86 64 95 94 90 76 89 96 85 87 101 102 103 73 106 110 102 101 70 74 76 73 77 55 57 51 71 82 81 64 81 83 78 51 64 64 50 50 47 32 38 37 36
83 83 86 85 87 73 88 87 90 97 92 100 82 100 93 100 101 103 107 98 103 104 103 106 87 98 93 106 90 75 82 68 50 85 93 88 92 71 72 54 71 56 70 70 50 46 36 26 33
65 53 86 60 71 83 83 84 86 88 89 89 92 85 73 84 103 86 84 86 112 110 107 109 107 101 104 89 108 102 95 103 71 63 95 106 71 69 84 84 94 57 54 61 68 46 45 43 34
91 88 84 84 81 65 73 90 87 78 65 87 90 97 91 98 100 106 70 74 76 73 73 76 110 112 106 107 102 104 105 103 107 107 88 50 98 68 65 69 90 57 56 58 61 49 48 45 51
74 86 90 79 86 88 90 87 85 90 83 77 95 77 94 94 90 80 84 75 76 83 78 74 71 71 112 111 107 100 110 105 98 103 112 109 52 95 107 90 89 70 87 56 52 50 50 48 47
81 85 85 84 90 89 91 90 92 90 93 95 74 93 89 84 81 71 67 69 68 76 69 70 72 73 77 90 100 112 89 108 110 105 107 115 87 66 117 115 99 63 78 65 57 54 54 53 51
46 65 70 75 58 83 84 83 89 90 79 86 77 76 74 84 72 74 80 74 70 70 76 74 74 75 82 86 91 93 111 113 95 96 98 95 104 90 60 106 68 94 88 77 72 57 56 55 54
40 43 52 58 69 67 71 73 76 72 74 78 77 77 82 79 77 78 76 68 67 67 72 80 79 84 88 92 96 100 103 89 108 107 105 115 96 89 58 46 84 75 101 100 100 79 60 57 55
37 41 46 52 56 58 69 67 74 70 76 74 74 77 72 74 77 76 69 66 68 71 77 80 84 89 91 94 98 102 96 105 105 118 119 121 109 98 112 124 61 94 96 66 72 65 66 80 59
43 45 43 42 50 53 53 60 62 65 70 74 73 72 73 74 71 69 66 68 70 75 77 81 86 88 88 92 90 91 98 104 107 109 109 124 120 108 105 122 96 54 64 97 73 68 98 77 66
41 42 42 45 47 48 55 59 65 67 68 69 68 66 59 58 62 64 66 68 71 71 76 82 82 84 83 84 96 97 89 80 63 73 90 115 104 128 108 110 123 117 66 59 103 67 82 62 66
45 46 45 49 50 53 58 58 62 66 64 63 57 54 54 56 59 62 66 69 69 71 78 82 81 86 91 94 97 81 59 50 48 51 54 95 76 113 123 110 115 126 72 57 110 70 71 68 74
46 45 48 49 50 51 56 57 55 62 57 56 51 51 53 55 59 62 64 67 71 75 77 79 82 86 89 91 80 65 50 47 46 46 48 74 74 108 127 117 115 130 132 61 60 108 68 80 67
47 47 47 47 49 49 53 49 50 53 53 51 50 49 51 54 57 59 63 67 71 72 75 77 75 82 89 98 73 48 44 46 46 46 45 52 90 100 119 139 117 125 132 129 67 58 109 95 81
44 45 47 42 41 43 43 42 47 48 51 51 47 48 49 52 54 60 62 66 69 71 71 64 76 83 88 72 63 48 42 43 45 43 43 43 69 95 119 135 137 128 127 133 130 68 68 92 92
39 41 42 41 43 43 43 44 46 50 49 48 45 45 47 49 51 53 48 57 63 63 65 70 73 80 86 65 53 42 39 37 36 36 38 39 41 49 119 131 133 120 144 129 134 123 100 110 106
41 41 43 44 42 43 43 46 46 48 47 46 45 43 44 47 48 49 51 54 58 60 63 66 74 78 69 57 51 39 32 33 32 30 32 71 41 80 93 126 132 144 122 126 133 125 68 101 71
44 44 46 45 42 39 42 45 50 47 45 46 43 42 43 47 51 52 52 56 57 54 62 65 71 77 61 51 47 36 28 26 26 22 26 41 42 99 115 125 142 149 141 134 133 126 123 101 98
47 46 47 47 43 42 45 47 49 43 44 50 44 41 43 48 51 52 51 54 55 50 57 61 68 75 55 48 44 31 24 24 24 18 22 49 42 56 117 122 132 134 134 135 131 127 119 87 116
Wind_Direction
253 252 250 248 252 252 249 246 253 258 248 243 243 260 246 255 242 234 263 250 244 253 234 237 234 254 229 241 227 226 227 242 252 241 248 218 220 216 206 210 208 196 211 235 278 244 286 261 303
253 250 252 250 249 247 248 252 244 253 255 260 237 259 242 255 246 247 240 250 258 258 256 252 235 237 229 249 235 235 230 253 230 238 230 258 217 217 212 199 211 201 197 217 248 280 240 222 298
249 249 251 246 234 244 250 234 244 243 248 252 256 247 243 248 239 240 246 262 247 246 264 248 255 264 236 238 235 232 226 241 247 239 240 242 242 211 257 206 206 213 204 211 235 257 225 267 295
251 254 250 246 247 233 244 248 250 248 243 248 247 249 247 252 240 261 238 240 234 238 245 244 242 244 245 233 237 254 231 229 236 238 233 239 245 226 225 251 202 206 210 219 229 215 265 228 285
249 248 249 248 249 249 248 249 239 244 241 232 248 248 249 247 253 254 253 238 240 249 243 247 261 241 251 255 234 234 235 231 232 237 235 239 231 244 214 213 210 213 212 215 223 227 250 227 221
248 250 249 250 252 252 252 251 248 248 246 252 251 251 249 249 249 249 249 255 247 248 246 244 246 261 260 237 249 234 261 238 248 233 240 239 235 240 216 215 214 210 218 218 237 214 233 229 235
252 253 255 254 250 246 250 252 253 253 251 240 234 248 251 254 253 241 239 249 250 243 237 245 248 244 249 254 235 235 239 241 237 258 258 238 240 226 222 222 218 211 215 215 213 234 208 240 225
256 255 255 252 251 251 245 252 247 249 244 253 249 250 251 244 253 253 249 246 252 250 252 247 243 253 243 247 250 240 246 234 251 236 241 233 255 239 271 241 236 215 220 218 220 223 218 214 233
255 248 250 248 251 251 253 253 254 248 253 250 240 246 252 245 251 249 249 247 239 244 245 252 249 244 248 244 256 246 255 236 233 233 248 240 242 236 233 222 221 221 218 220 249 213 221 227 216
246 253 247 252 249 247 253 251 252 251 241 256 255 248 257 250 252 246 248 250 249 248 248 242 239 243 249 246 244 237 252 253 236 249 244 247 230 245 252 239 224 229 224 219 217 216 213 222 218
256 255 247 249 250 254 251 254 253 251 247 245 253 248 254 253 252 248 252 250 250 250 247 253 245 247 241 251 250 243 238 250 239 234 241 245 243 229 254 236 237 226 233 218 221 217 217 221 220
246 261 250 267 253 251 260 251 254 254 253 247 254 254 254 254 256 257 256 243 256 257 253 251 239 242 243 237 242 250 249 243 231 241 239 233 236 246 237 220 232 234 223 222 221 223 219 220 222
250 251 249 252 258 260 249 249 254 253 256 254 250 256 259 256 256 257 258 254 255 255 253 253 245 251 247 249 244 237 245 241 240 244 243 241 246 235 229 222 239 225 234 238 222 222 222 208 226
265 267 251 257 254 251 252 254 255 255 257 257 260 257 253 250 255 249 249 249 257 257 255 255 255 254 256 245 251 245 241 239 247 242 243 244 237 233 234 239 247 223 223 228 231 221 222 226 223
252 248 246 248 249 241 250 250 253 255 254 257 256 256 259 261 259 259 250 248 247 249 249 246 256 253 256 251 252 249 249 247 239 236 237 233 241 239 234 233 239 221 223 226 229 217 222 230 230
251 251 250 250 247 248 250 250 252 255 252 246 258 251 263 266 268 267 266 249 249 260 264 264 259 256 253 254 252 249 250 247 242 238 233 235 233 236 241 235 234 229 235 221 221 220 225 228 229
253 252 249 250 247 247 250 251 254 256 258 260 250 265 266 266 266 258 256 256 255 268 263 260 257 248 252 249 250 251 238 249 245 239 241 229 235 233 238 239 233 228 229 226 222 221 222 228 232
246 251 247 247 261 247 248 254 254 256 261 259 261 261 261 263 255 266 255 260 265 261 257 257 252 251 253 251 249 248 249 247 235 238 240 235 235 228 230 234 232 233 225 230 228 224 224 226 228
244 232 241 244 251 250 252 252 253 255 255 257 257 257 261 263 263 263 266 265 262 261 259 256 258 257 255 254 253 252 248 243 242 238 241 229 233 230 225 217 230 231 232 230 227 231 226 227 229
247 246 242 244 247 248 252 250 254 251 253 255 259 262 262 262 262 264 266 262 260 260 259 259 259 259 260 260 259 257 252 256 247 245 237 229 231 232 222 222 228 229 233 222 227 224 224 230 228
247 246 246 244 244 247 250 249 254 251 252 254 259 259 263 266 265 262 261 260 260 260 263 264 265 266 267 267 266 264 259 258 256 253 249 237 229 222 227 220 222 220 228 235 226 225 226 226 227
246 248 247 247 248 249 250 248 252 252 255 257 261 265 262 262 262 261 263 265 266 269 270 270 273 274 273 272 272 271 274 270 265 253 244 240 232 224 223 224 214 218 226 223 230 228 232 230 227
247 247 247 248 248 248 251 251 253 254 258 261 260 259 261 260 262 265 266 269 272 272 273 276 277 279 281 283 284 286 282 279 273 267 261 231 231 222 215 225 218 215 218 213 230 226 226 228 229
247 245 245 248 249 248 249 252 251 255 256 257 257 257 259 261 265 267 270 273 276 278 281 283 286 288 289 289 294 291 285 280 278 270 265 237 235 213 217 227 216 212 217 206 219 227 228 228 225
249 249 246 245 248 249 252 248 247 249 252 255 257 259 263 266 270 273 277 280 281 285 287 287 290 293 293 307 297 295 289 284 279 271 266 250 225 210 210 214 220 212 214 219 215 214 226 228 228
248 249 248 245 242 243 241 242 246 248 251 254 258 260 265 269 273 278 281 283 286 287 288 291 296 297 312 305 302 298 293 287 281 272 262 253 225 206 206 210 207 208 213 216 221 216 221 226 229
248 246 245 240 238 239 242 242 244 251 254 258 260 263 269 274 279 283 280 291 289 290 294 298 300 311 318 308 308 303 302 290 281 267 256 247 236 226 201 207 205 215 208 215 220 222 227 223 230
249 250 248 242 237 238 243 249 251 252 257 261 262 267 273 275 273 273 283 289 293 297 301 302 304 320 318 313 313 312 308 299 290 267 252 215 229 216 227 204 203 204 214 213 218 219 213 225 220
249 248 246 246 245 245 245 249 253 255 259 264 265 271 275 276 275 279 286 296 297 301 304 305 315 327 322 319 319 323 315 309 301 276 251 227 224 200 199 199 198 200 205 210 214 217 218 219 221
254 249 244 242 244 244 244 248 253 257 260 264 265 268 273 278 281 285 291 295 301 304 306 311 321 332 327 325 325 335 333 321 309 294 258 209 217 210 195 199 201 202 205 207 212 214 216 217 220